Location: Ocean City
(38.3360°N, 75.0850°W)
Time: 17:24:55
(UTC-04:00)

Max Valier Satellite - Pass Details

Date: 28 May 2019
Orbit: 492 x 507 km, 97.4° (Epoch: 19 June)

Event Time Altitude Azimuth Distance (km) Brightness Sun altitude
Exits shadow 22:06:23 35° 183° (S) 824 ? -17.9°
Maximum altitude 22:07:48 72° 258° (WSW) 533 ? -18.1°
Drops below altitude 10° 22:11:30 10° 344° (NNW) 1,721 ? -18.5°
Sets 22:13:37 0° 346° (NNW) 2,613 ? -18.8°
